Hot Springs, VA

1:33 PM EST on February 09, 2016 (GMT -0500)
Ingalls

Weather History for KHSP - February, 2012

Change the Weather History Date:

Thursday, February 16, 2012

  Actual Average Record
Temperature  
Mean Temperature 38 °F -  
Max Temperature 42 °F 36 °F 57 °F (2006)
Min Temperature 35 °F 21 °F 0 °F (2015)
Degree Days  
Heating Degree Days 26    
Moisture  
Dew Point 36 °F    
Average Humidity 88    
Maximum Humidity 100    
Minimum Humidity 53    
Precipitation  
Precipitation 0.28 in - - ()
Sea Level Pressure  
Sea Level Pressure 30.09 in    
Wind  
Wind Speed 13 mph (SSW)    
Max Wind Speed 24 mph    
Max Gust Speed 33 mph    
Visibility 5 miles    
Events Rain , Snow    
Averages and records for this station are not official NWS values.
T = Trace of Precipitation, MM = Missing Value Source: NWS Daily Summary

Daily Weather History Graph

Daily Weather History Graph

Search for Another Location

Airport or City:

Trip Planner

Search our weather history database for the weather conditions in past years. The results will help you decide how hot, cold, wet, or windy it might be!

Date:

Astronomy

Feb. 16, 2012 Rise Set
Actual Time 7:08 AM EST 5:58 PM EST
Civil Twilight 6:41 AM EST 6:25 PM EST
Nautical Twilight 6:10 AM EST 6:56 PM EST
Astronomical Twilight 5:40 AM EST 7:26 PM EST
Moon 2:59 AM EST (2/16) 12:52 PM EST (2/16)
Length of Visible Light 11h 43m
Length of Day
10h 50m
Waning Crescent, 28% of the Moon is Illuminated
Feb 16
Waning Crescent
Feb 21
New
Feb 29
First Quarter
Mar 8
Full
Mar 14
Last Quarter

Hourly Weather History & Observations

Time (EST) Temp. Windchill Dew Point Humidity Pressure Visibility Wind Dir Wind Speed Gust Speed Precip Events Conditions
12:15 AM 41.0 °F 34.7 °F 24.8 °F 53% 30.22 in 10.0 mi SSE 10.4 mph 17.3 mph N/A   Overcast
12:37 AM 41.0 °F 34.3 °F 24.8 °F 53% 30.21 in - SSE 11.5 mph 19.6 mph N/A   Unknown
12:55 AM 41.0 °F 33.9 °F 24.8 °F 53% 30.21 in 10.0 mi SSE 12.7 mph - N/A   Scattered Clouds
1:35 AM 41.0 °F 33.5 °F 24.8 °F 53% 30.19 in 10.0 mi SSE 13.8 mph 24.2 mph N/A   Scattered Clouds
1:55 AM 41.0 °F 33.1 °F 24.8 °F 53% 30.20 in 10.0 mi SSE 15.0 mph 24.2 mph N/A   Mostly Cloudy
2:15 AM 41.0 °F 33.9 °F 24.8 °F 53% 30.19 in 10.0 mi SSE 12.7 mph 21.9 mph N/A   Overcast
2:35 AM 41.0 °F 34.7 °F 24.8 °F 53% 30.21 in 10.0 mi South 10.4 mph 18.4 mph N/A   Overcast
2:55 AM 41.0 °F 33.5 °F 24.8 °F 53% 30.20 in 10.0 mi South 13.8 mph 20.7 mph N/A   Overcast
3:15 AM 41.0 °F 33.1 °F 26.6 °F 57% 30.19 in 10.0 mi South 15.0 mph 21.9 mph N/A   Overcast
3:39 AM 41.0 °F 33.9 °F 26.6 °F 57% 30.20 in 10.0 mi South 12.7 mph 20.7 mph N/A   Overcast
3:55 AM 39.2 °F 32.0 °F 26.6 °F 61% 30.20 in 10.0 mi South 11.5 mph - N/A   Light Drizzle
4:15 AM 41.0 °F 35.2 °F 26.6 °F 57% 30.18 in 10.0 mi SSE 9.2 mph - N/A   Overcast
4:35 AM 41.0 °F 33.1 °F 26.6 °F 57% 30.19 in 10.0 mi South 15.0 mph 20.7 mph N/A   Overcast
4:57 AM 41.0 °F 34.7 °F 26.6 °F 57% 30.20 in 10.0 mi South 10.4 mph 16.1 mph N/A   Overcast
5:15 AM 37.4 °F 29.3 °F 30.2 °F 75% 30.20 in 7.0 mi South 12.7 mph 19.6 mph N/A Rain Rain
5:35 AM 35.6 °F 29.2 °F 33.8 °F 93% 30.18 in 7.0 mi SSW 8.1 mph - 0.02 in Snow Snow
5:55 AM 37.4 °F 30.8 °F 33.8 °F 87% 30.18 in 7.0 mi SSW 9.2 mph - N/A Rain Light Rain
6:15 AM 37.4 °F 29.8 °F 35.6 °F 93% 30.16 in 10.0 mi South 11.5 mph 18.4 mph N/A   Drizzle
6:35 AM 35.6 °F 28.0 °F 33.8 °F 93% 30.15 in 10.0 mi South 10.4 mph - N/A Rain Light Rain
6:55 AM 35.6 °F 28.6 °F 33.8 °F 93% 30.14 in 10.0 mi SSE 9.2 mph - N/A Rain Light Rain
7:15 AM 35.6 °F 28.6 °F 33.8 °F 93% 30.13 in 10.0 mi South 9.2 mph 17.3 mph N/A Rain Light Rain
7:35 AM 35.6 °F 26.6 °F 33.8 °F 93% 30.12 in 10.0 mi South 13.8 mph 18.4 mph N/A   Overcast
7:55 AM 37.4 °F 28.9 °F 35.6 °F 93% 30.12 in 10.0 mi South 13.8 mph 21.9 mph N/A   Overcast
8:15 AM 37.4 °F 29.3 °F 35.6 °F 93% 30.12 in 7.0 mi South 12.7 mph 16.1 mph N/A   Drizzle
8:35 AM 37.4 °F 28.5 °F 37.4 °F 100% 30.13 in 5.0 mi South 15.0 mph 23.0 mph 0.01 in Rain Rain
8:59 AM 37.4 °F 28.9 °F 37.4 °F 100% 30.14 in 0.5 mi South 13.8 mph 24.2 mph 0.01 in   Drizzle
9:15 AM 37.4 °F 29.8 °F 37.4 °F 100% 30.12 in 0.2 mi SSE 11.5 mph 17.3 mph 0.06 in Rain Heavy Rain
9:35 AM 37.4 °F 28.9 °F 37.4 °F 100% 30.11 in 0.2 mi South 13.8 mph 20.7 mph 0.12 in Rain Rain
9:55 AM 37.4 °F 28.5 °F 37.4 °F 100% 30.11 in 0.2 mi South 15.0 mph 23.0 mph 0.02 in Rain Rain
10:15 AM 37.4 °F 27.8 °F 37.4 °F 100% 30.10 in 1.5 mi South 17.3 mph 27.6 mph 0.07 in Rain Rain
10:35 AM 37.4 °F 28.2 °F 37.4 °F 100% 30.10 in 3.0 mi South 16.1 mph 25.3 mph 0.10 in Rain Light Rain
11:15 AM 37.4 °F 30.3 °F 37.4 °F 100% 30.08 in 0.2 mi South 10.4 mph 18.4 mph 0.01 in   Drizzle
11:35 AM 37.4 °F 30.3 °F 37.4 °F 100% 30.08 in 0.2 mi South 10.4 mph 17.3 mph 0.01 in   Drizzle
11:55 AM 37.4 °F 32.1 °F 37.4 °F 100% 30.07 in 0.2 mi South 6.9 mph - N/A   Drizzle
12:15 PM 37.4 °F 32.1 °F 37.4 °F 100% 30.07 in 0.2 mi South 6.9 mph 16.1 mph N/A Snow Snow
12:35 PM 37.4 °F 32.8 °F 37.4 °F 100% 30.06 in 0.2 mi SSW 5.8 mph - N/A   Drizzle
12:55 PM 37.4 °F 31.4 °F 37.4 °F 100% 30.05 in 0.2 mi South 8.1 mph - N/A   Light Drizzle
1:15 PM 39.2 °F 33.0 °F 39.2 °F 100% 30.05 in 0.2 mi SW 9.2 mph - 0.01 in Rain Rain
1:35 PM 39.2 °F 31.6 °F 39.2 °F 100% 30.04 in 4.0 mi SW 12.7 mph 19.6 mph 0.01 in Rain Rain
1:55 PM 39.2 °F 32.0 °F 39.2 °F 100% 30.03 in 0.5 mi SW 11.5 mph - 0.01 in   Drizzle
2:15 PM 39.2 °F 32.0 °F 39.2 °F 100% 30.03 in 0.2 mi WSW 11.5 mph 17.3 mph 0.01 in   Drizzle
2:37 PM 41.0 °F 35.8 °F 41.0 °F 100% 30.01 in 0.2 mi SSW 8.1 mph 11.5 mph 0.01 in Rain Light Rain
2:57 PM 39.2 °F 34.2 °F 39.2 °F 100% 30.02 in 0.2 mi SSW 6.9 mph - N/A Rain Rain
3:15 PM 41.0 °F 35.2 °F 41.0 °F 100% 30.02 in 0.2 mi West 9.2 mph - N/A Rain Rain
3:35 PM 42.8 °F 35.1 °F 42.8 °F 100% 30.01 in 0.2 mi WSW 16.1 mph - N/A   Drizzle
3:55 PM 42.8 °F 36.2 °F 42.8 °F 100% 30.01 in 0.2 mi WSW 12.7 mph 19.6 mph N/A   Unknown
4:15 PM 42.8 °F 35.1 °F 42.8 °F 100% 30.00 in 0.2 mi West 16.1 mph 20.7 mph N/A   Unknown
4:35 PM 42.8 °F 35.1 °F 42.8 °F 100% 30.00 in 0.2 mi West 16.1 mph 24.2 mph N/A   Unknown
4:55 PM 42.8 °F 34.3 °F 42.8 °F 100% 30.00 in 0.2 mi West 19.6 mph 25.3 mph N/A   Unknown
5:15 PM 42.8 °F 34.3 °F 42.8 °F 100% 30.00 in 0.2 mi West 19.6 mph 26.5 mph N/A   Unknown
5:35 PM 42.8 °F 34.0 °F 42.8 °F 100% 30.00 in 0.2 mi West 20.7 mph 28.8 mph N/A   Unknown
6:15 PM 42.8 °F 34.3 °F 42.8 °F 100% 30.00 in 0.2 mi West 19.6 mph 31.1 mph N/A   Unknown
6:35 PM 42.8 °F 33.3 °F 42.8 °F 100% 30.01 in 0.2 mi West 24.2 mph 33.4 mph N/A   Unknown
7:15 PM 42.8 °F 34.0 °F 42.8 °F 100% 30.00 in 0.8 mi West 20.7 mph 28.8 mph N/A   Overcast
7:37 PM 42.8 °F 33.8 °F 42.8 °F 100% 30.00 in 2.0 mi West 21.9 mph 25.3 mph N/A   Overcast
7:55 PM 41.0 °F 32.5 °F 41.0 °F 100% 30.00 in 7.0 mi West 17.3 mph 23.0 mph N/A   Overcast
8:15 PM 42.8 °F 34.3 °F 42.8 °F 100% 30.01 in 10.0 mi West 19.6 mph 27.6 mph N/A   Overcast
8:35 PM 42.8 °F 34.3 °F 42.8 °F 100% 30.01 in 10.0 mi West 19.6 mph 28.8 mph N/A   Overcast
8:55 PM 41.0 °F 31.9 °F 41.0 °F 100% 30.01 in 10.0 mi WNW 19.6 mph 25.3 mph N/A   Overcast
9:15 PM 41.0 °F 31.9 °F 41.0 °F 100% 30.00 in 10.0 mi WNW 19.6 mph 29.9 mph N/A   Overcast
9:36 PM 41.0 °F 31.4 °F 41.0 °F 100% 30.02 in 10.0 mi West 21.9 mph 28.8 mph N/A   Overcast
9:55 PM 41.0 °F 31.1 °F 41.0 °F 100% 30.03 in 10.0 mi WNW 23.0 mph 28.8 mph N/A   Overcast
10:15 PM 41.0 °F 32.8 °F 41.0 °F 100% 30.03 in 10.0 mi WNW 16.1 mph 23.0 mph N/A   Overcast
10:35 PM 41.0 °F 31.9 °F 41.0 °F 100% 30.03 in 10.0 mi WNW 19.6 mph 26.5 mph N/A   Overcast
10:55 PM 39.2 °F 30.2 °F 39.2 °F 100% 30.02 in 10.0 mi WNW 17.3 mph 23.0 mph N/A   Overcast
11:16 PM 39.2 °F 30.5 °F 39.2 °F 100% 30.01 in 10.0 mi WNW 16.1 mph 26.5 mph N/A   Overcast
11:35 PM 39.2 °F 30.8 °F 39.2 °F 100% 30.01 in 10.0 mi WNW 15.0 mph 23.0 mph N/A   Overcast
11:55 PM 39.2 °F 30.5 °F 39.2 °F 100% 30.01 in 10.0 mi West 16.1 mph 20.7 mph N/A   Overcast